GW1868 Weather Reports


Display with metric or nautical units.
time (UTC)temp
F
wind
direction
speed
MPH
gust
MPH
rain 1hr
in
rain 24hr
in
rain mn
in
humidity
%
barometer
mb
20260505021529 66 143 1.0 1.0 0.00 0.00 0.00 68 1014.8
20260505020029 66 131 2.0 2.0 0.00 0.00 0.00 67 1014.7
20260505014526 66 153 3.0 3.0 0.00 0.00 0.00 66 1014.6
20260505013023 66 144 1.0 3.0 0.00 0.00 0.00 66 1014.5
20260505011519 67 143 1.0 2.0 0.00 0.00 0.00 64 1014.5
20260505010015 68 142 2.0 2.0 0.00 0.00 0.00 61 1014.4
20260505004511 69 149 2.0 5.0 0.00 0.00 0.00 59 1014.6
20260505003008 72 147 4.0 5.0 0.00 0.00 0.00 50 1014.7
20260505001505 72 147 4.0 5.0 0.00 0.00 0.00 50 1015.0
20260505000002 72 156 7.0 9.0 0.00 0.00 0.00 49 1014.9
20260504234459 73 166 3.0 3.0 0.00 0.00 0.00 48 1014.8
20260504232954 74 189 3.0 6.0 0.00 0.00 0.00 45 1014.9
20260504231450 75 156 4.0 5.0 0.00 0.00 0.00 41 1015.1
20260504225948 77 164 6.0 9.0 0.00 0.00 0.00 39 1015.1
20260504224444 77 161 1.0 7.0 0.00 0.00 0.00 37 1015.0
20260504222944 77 150 6.0 8.0 0.00 0.00 0.00 37 1015.3
20260504221443 78 154 3.0 8.0 0.00 0.00 0.00 35 1015.3
20260504215939 78 186 4.0 9.0 0.00 0.00 0.00 34 1015.5
20260504214435 78 177 3.0 6.0 0.00 0.00 0.00 32 1015.7
20260504212931 78 204 3.0 5.0 0.00 0.00 0.00 33 1015.7
20260504211432 78 170 1.0 2.0 0.00 0.00 0.00 35 1015.8
20260504205929 79 219 1.0 7.0 0.00 0.00 0.00 36 1015.9
20260504204428 78 188 6.0 7.0 0.00 0.00 0.00 35 1016.0
20260504202926 78 202 3.0 5.0 0.00 0.00 0.00 36 1016.3
20260504201423 79 175 5.0 7.0 0.00 0.00 0.00 39 1016.5
20260504195920 77 167 5.0 6.0 0.00 0.00 0.00 38 1016.9
20260504194420 79 155 3.0 5.0 0.00 0.00 0.00 41 1017.1
20260504192918 78 172 7.0 8.0 0.00 0.00 0.00 39 1017.4
20260504191417 78 172 3.0 3.0 0.00 0.00 0.00 40 1017.3
20260504185917 78 214 3.0 5.0 0.00 0.00 0.00 39 1017.6
20260504184417 78 91 2.0 2.0 0.00 0.00 0.00 43 1017.7
20260504182914 77 142 1.0 2.0 0.00 0.00 0.00 40 1017.8
20260504181411 78 160 5.0 7.0 0.00 0.00 0.00 41 1018.2
20260504175906 78 146 4.0 6.0 0.00 0.00 0.00 39 1018.3
20260504174404 78 144 3.0 3.0 0.00 0.00 0.00 39 1018.2
20260504172900 77 149 2.0 3.0 0.00 0.00 0.00 44 1018.6
20260504171356 76 178 4.0 6.0 0.00 0.00 0.00 39 1018.4
20260504141315 71 137 1.0 5.0 0.00 0.00 0.00 47 1019.3
20260504081158 54 143 0.0 0.0 0.00 0.00 0.00 90 1018.9
20260504045611 57 141 0.0 0.0 0.00 0.00 0.00 83 1020.3
20260504044106 59 146 0.0 0.0 0.00 0.00 0.00 76 1020.5
20260504042604 60 139 0.0 1.0 0.00 0.00 0.00 71 1020.5
20260504041058 61 163 1.0 2.0 0.00 0.00 0.00 69 1020.5
20260504035554 62 154 1.0 2.0 0.00 0.00 0.00 67 1020.6
20260504034051 62 206 3.0 3.0 0.00 0.00 0.00 67 1020.7
20260504032548 63 174 2.0 2.0 0.00 0.00 0.00 65 1020.7
20260504031044 63 203 2.0 3.0 0.00 0.00 0.00 64 1020.8
20260504025541 64 207 2.0 3.0 0.00 0.00 0.00 62 1020.7
20260504024037 63 169 2.0 3.0 0.00 0.00 0.00 64 1020.5